A/2018 V3

Japanese version
Home page
Updated on September 17, 2019

---------------------------------------------------------------------

* Profile

Discovery Date November 12, 2018
Magnitude 21.9 mag
Discoverer Pan-STARRS 2 (Haleakala)

* Pictures

* Orbital Elements

Epoch 2019 Aug. 25.0 TT = JDT 2458720.5                                         
T 2019 Sept. 8.69995 TT                                 Williams                
q   1.3395046            (2000.0)            P               Q                  
z  +0.0082136      Peri.    3.50039     +0.57742196     -0.79095595             
 +/-0.0000023      Node   308.65554     -0.75522886     -0.61164212             
e   0.9889978      Incl.  164.97713     -0.31018259     +0.01681090             
H   15.7                                                                        
From 114 observations 2018 Nov. 2-2019 Aug. 9, mean residual 0".3.              

* Finding Charts

* Magnitudes Graph

        H = 15.5  G = 0.15

---------------------------------------------------------------------

The orbital elements are published on M.P.E.C. 2019-Q04.
The charts are made with StellaNavigator Ver.10 (AstroArts).
The magnitudes graphs are made with Comet for Windows.

---------------------------------------------------------------------

Copyright(C) Seiichi Yoshida (comet@aerith.net). All rights reserved.